Location: Nitra
(0.0000°N, 18.0833°E)
Time: 21:25:31
(UTC+01:00)

Vanguard 2 Rocket - Visible Passes

Search period start: 21 March 2023 00:00
Search period end: 31 March 2023 01:00
Orbit: 555 x 3316 km, 32.9° (Epoch: 21 March)

Date Brightness Start Highest point End Pass type
(mag) Time Alt. Az. Time Alt. Az. Time Alt. Az.
21 Mar 10.7 00:39:32 20° NE 00:39:32 20° NE 00:46:46 10° ENE visible
21 Mar 9.8 02:45:17 42° NNW 02:52:37 56° NE 03:09:57 10° ESE visible
21 Mar 9.4 04:51:08 10° WNW 05:11:20 70° SW 05:25:31 10° SE visible
21 Mar 9.5 18:43:37 10° NW 18:47:10 15° NNW 18:51:42 10° NNE visible
22 Mar 10.0 01:48:38 43° NNE 01:48:38 43° NNE 02:06:20 10° E visible
22 Mar 9.4 03:54:24 29° NW 04:08:02 89° SW 04:24:16 10° SE visible
23 Mar 10.6 00:52:00 26° ENE 00:52:00 26° ENE 01:01:18 10° E visible
23 Mar 9.5 02:57:45 53° NNW 03:04:18 72° NE 03:22:13 10° ESE visible
23 Mar 9.6 05:03:31 10° WNW 05:22:44 53° SW 05:36:45 10° SE visible
24 Mar 9.7 02:01:06 56° NE 02:01:06 56° NE 02:19:11 10° ESE visible
24 Mar 9.4 04:06:52 31° WNW 04:19:26 70° SW 04:35:43 10° SE visible
25 Mar 10.4 01:04:25 33° ENE 01:04:25 33° ENE 01:14:57 10° E visible
25 Mar 9.4 03:10:10 61° NW 03:15:46 89° SW 03:33:57 10° SE visible
25 Mar 9.8 05:16:23 10° W 05:34:16 40° SW 05:47:46 10° SSE visible
26 Mar 11.0 00:07:41 13° E 00:07:41 13° E 00:09:13 10° E visible
26 Mar 9.5 03:13:26 71° ENE 03:13:26 71° ENE 03:31:22 10° ESE visible
26 Mar 9.6 05:19:11 29° W 05:30:51 54° SW 05:46:52 10° SE visible
27 Mar 10.2 02:16:37 39° E 02:16:37 39° E 02:27:44 10° ESE visible
27 Mar 9.4 04:22:22 59° W 04:27:08 71° SW 04:45:19 10° SE visible
27 Mar 10.1 06:30:11 10° W 06:46:09 30° SSW 06:58:38 10° SSE visible
28 Mar 10.9 01:19:45 16° E 01:19:45 16° E 01:22:53 10° E visible
28 Mar 9.4 03:25:30 78° SE 03:25:30 78° SE 03:43:01 10° SE visible
28 Mar 9.9 05:31:14 25° W 05:42:28 41° SW 05:57:50 10° SSE visible
29 Mar 10.1 02:28:32 43° ESE 02:28:32 43° ESE 02:39:50 10° ESE visible
29 Mar 9.5 04:34:16 49° WSW 04:38:36 55° SW 04:56:23 10° SE visible
30 Mar 10.8 01:31:30 19° ESE 01:31:30 19° ESE 01:35:39 10° ESE visible
30 Mar 9.5 03:37:13 66° S 03:37:13 66° S 03:54:17 10° SE visible
30 Mar 10.1 05:42:57 19° WSW 05:54:28 31° SSW 06:08:43 10° SSE visible
